Tracking 33180 objects as of 11-Feb-2026
HD Live streaming from Space Station
objects crossing your sky now

DMSP 5D-2 F11 DEB

Track DMSP 5D-2 F11 DEB now!
10-day predictions


NORAD ID: 28333
Int'l Code: 1991-082AW
Perigee: 405.2 km
Apogee: 431.6 km
Inclination: 98.5 °
Period: 92.8 minutes
Semi major axis: 6789 km
RCS: 0.0092 m2 (small)
Launch date: November 28, 1991
Source: United States (US)
Launch site: AIR FORCE WESTERN TEST RANGE (AFWTR)

Note: This is SATELLITE DEBRIS
Your satellite tracking list
Your tracking list is empty




NASA's NSSDC Master Catalog

Two Line Element Set (TLE):
1 28333U 91082AW  26035.16525670  .00971016  00000-0  14780-1 0  9992
2 28333  98.4998 160.6397 0019403 298.7324 183.0850 15.51875230137555
Source of the keplerian elements: AFSPC